Starlink 5856

operational
NORAD ID: 55914 Int'l Des: 2023-037 Owner: SPXS Country: US Constellation: starlink
LEOCIRCULAR

Über Starlink 5856

Beschreibung wird geladen...

Live-Position

3D-Globus wird geladen...

Nächste Überflüge

Höhenverlauf

Altitude vs Time

uPlot chart will show altitude changes over time

Zweizeiliger Elementsatz

1 55914U 23037A 25303.64272278 .00001123 00000-0 10190-3 0 9991
2 55914 69.9984 272.4990 0002864 270.2425 89.8405 14.98335532144697
Epoch: 30. Okt. 2025 • Age: 19 hours

Aktueller Status

Höhe 594.3 km
Geschwindigkeit 7.56 km/s
Subsatellitenpunkt -65.10°S, 24.49°E
Startdatum 17. März 2023
Alter 2.6 years
Typ internet

Technische Details

Klassifizierung Payload
Masse 305.00 kg
Trockenmasse 290.00 kg
Gesamtmasse 305.00 kg
Länge 0.20 m
Durchmesser 2.80 m
Spannweite 9.00 m
Form Box + pan
Hersteller SPXS
Bus-Typ Starlink
Phasenstatus In Orbit
Besitzer/Staat SPXS/US

Große Konstellationen

Loading constellations...